Location: Unspecified
(0.0000°N, 0.0000°E)
Time: 10:37:02
(UTC+00:00)

AO-7 - Pass Details

Date: 26 September 2021
Orbit: 1439 x 1459 km, 101.9° (Epoch: 23 October)

Event Time Altitude Azimuth Distance (km) Brightness Sun altitude
Rises 05:13:42 0° 343° (NNW) 4,521 ? -9.4°
Reaches altitude 10° 05:17:44 10° 324° (NW) 3,544 ? -8.4°
Maximum altitude 05:22:32 17° 287° (WNW) 3,033 ? -7.2°
Drops below altitude 10° 05:27:23 10° 251° (WSW) 3,549 ? -6.0°
Sets 05:31:29 0° 232° (SW) 4,530 ? -5.0°
